Weather History for Columbia, MO

Change the Weather History Date:

Friday, November 9, 2012

  Actual Average Record
Temperature  
Mean Temperature 61 °F 48 °F  
Max Temperature 73 °F 57 °F 78 °F (1999)
Min Temperature 49 °F 38 °F 11 °F (1991)
Degree Days  
Heating Degree Days 4 17  
Month to date heating degree days 153 142  
Since 1 July heating degree days 550 507  
Cooling Degree Days 0 0  
Month to date cooling degree days 0 0  
Year to date cooling degree days 1893 1247  
Growing Degree Days 10 (Base 50)    
Moisture  
Dew Point 48 °F    
Average Humidity 66    
Maximum Humidity 78    
Minimum Humidity 53    
Precipitation  
Precipitation 0.00 in 0.11 in 1.36 in (1935)
Month to date precipitation 0.12 0.94  
Year to date precipitation 28.27 37.87  
Snow  
Snow 0.00 in 0.00 in 0.70 in (1926)
Month to date snowfall 0.0 0.1  
Since 1 July snowfall 0.0 0.1  
Since 1 September snowfall 0.0 0.1  
Snow Depth 0.00 in    
Sea Level Pressure  
Sea Level Pressure 29.93 in    
Wind  
Wind Speed 12 mph (SSE)    
Max Wind Speed 21 mph    
Max Gust Speed 31 mph    
Visibility 10 miles    
Events      
T = Trace of Precipitation, MM = Missing Value Source: NWS Daily Summary

Daily Weather History Graph

Daily Weather History Graph

Search for Another Location

Airport:

Trip Planner

Search our weather history database for the weather conditions in past years. The results will help you decide how hot, cold, wet, or windy it might be!

Date:

Astronomy

Nov. 09, 2012 Rise Set
Actual Time 6:45 AM CST 4:59 PM CST
Civil Twilight 6:17 AM CST 5:27 PM CST
Nautical Twilight 5:45 AM CST 5:59 PM CST
Astronomical Twilight 5:13 AM CST 6:31 PM CST
Moon 1:47 AM CST (11/9) 2:10 PM CST (11/9)
Length of Visible Light 11h 10m
Length of Day
10h 14m
Waning Crescent, 23% of the Moon is Illuminated
Nov 9
Waning Crescent
Nov 13
New
Nov 20
First Quarter
Nov 28
Full
Dec 6
Last Quarter

Hourly Weather History & Observations

Time (CST) Temp. Dew Point Humidity Pressure Visibility Wind Dir Wind Speed Gust Speed Precip Events Conditions
12:54 AM 50.0 °F 37.9 °F 63% 30.01 in 10.0 mi SSE 9.2 mph - N/A   Clear
1:54 AM 48.9 °F 37.9 °F 66% 29.99 in 10.0 mi SSE 10.4 mph - N/A   Clear
2:54 AM 50.0 °F 39.0 °F 66% 29.99 in 10.0 mi SSE 10.4 mph - N/A   Overcast
3:54 AM 50.0 °F 39.0 °F 66% 29.99 in 10.0 mi SSE 8.1 mph - N/A   Scattered Clouds
4:54 AM 48.9 °F 39.9 °F 71% 29.99 in 10.0 mi SE 8.1 mph - N/A   Scattered Clouds
5:54 AM 48.9 °F 39.9 °F 71% 29.99 in 10.0 mi SE 10.4 mph - N/A   Scattered Clouds
6:54 AM 48.9 °F 39.9 °F 71% 29.98 in 10.0 mi SE 9.2 mph - N/A   Partly Cloudy
7:54 AM 50.0 °F 41.0 °F 71% 29.98 in 10.0 mi SE 10.4 mph - N/A   Clear
8:54 AM 55.0 °F 44.1 °F 67% 29.98 in 10.0 mi South 10.4 mph - N/A   Clear
9:54 AM 60.1 °F 46.0 °F 60% 29.97 in 10.0 mi South 12.7 mph 21.9 mph N/A   Clear
10:54 AM 64.9 °F 50.0 °F 58% 29.95 in 10.0 mi South 10.4 mph - N/A   Clear
11:54 AM 68.0 °F 52.0 °F 56% 29.92 in 10.0 mi South 17.3 mph 25.3 mph N/A   Clear
12:54 PM 70.0 °F 52.0 °F 53% 29.90 in 10.0 mi South 8.1 mph - N/A   Clear
1:54 PM 70.0 °F 53.1 °F 55% 29.88 in 10.0 mi SSE 11.5 mph - N/A   Clear
2:54 PM 72.0 °F 54.0 °F 53% 29.86 in 10.0 mi SSE 12.7 mph - N/A   Clear
3:54 PM 72.0 °F 55.0 °F 55% 29.85 in 10.0 mi SSE 13.8 mph - N/A   Clear
4:54 PM 69.1 °F 54.0 °F 58% 29.84 in 10.0 mi SSE 11.5 mph - N/A   Clear
5:54 PM 68.0 °F 54.0 °F 61% 29.85 in 10.0 mi SSE 12.7 mph - N/A   Clear
6:54 PM 68.0 °F 55.0 °F 63% 29.87 in 10.0 mi South 21.9 mph 31.1 mph N/A   Clear
7:54 PM 64.9 °F 54.0 °F 68% 29.88 in 10.0 mi South 16.1 mph - N/A   Clear
8:54 PM 64.0 °F 53.1 °F 67% 29.90 in 10.0 mi South 15.0 mph 24.2 mph N/A   Clear
9:54 PM 62.1 °F 53.1 °F 72% 29.91 in 10.0 mi South 11.5 mph - N/A   Clear
10:54 PM 61.0 °F 53.1 °F 75% 29.91 in 10.0 mi South 10.4 mph - N/A   Clear
11:54 PM 61.0 °F 52.0 °F 72% 29.91 in 10.0 mi South 15.0 mph - N/A   Clear